RH
38 56 52 37 35 37 33 25 29 33 34 33 38 41 37 27 22 22 20 19 21 22 25 26 28 36 45 56 42 37 37 29 25 18 22 28 28 28 27 25 23 21 20 20
48 49 42 38 32 31 26 24 26 32 31 30 28 31 28 25 26 21 19 20 19 22 24 24 27 33 44 43 38 39 38 31 24 23 28 26 27 25 24 22 22 22 21 22
52 46 42 35 33 34 37 27 27 27 31 30 27 25 19 30 28 30 27 23 22 20 24 28 30 34 38 40 41 44 37 31 22 29 26 27 24 24 24 23 24 23 24 24
53 50 35 40 43 35 30 42 35 36 31 36 29 28 20 31 36 41 38 29 24 24 28 30 33 36 40 43 44 44 39 30 27 28 28 26 25 24 24 24 24 24 24 24
53 53 42 38 44 45 33 41 42 36 41 34 28 54 27 36 30 36 39 36 29 30 30 32 35 40 43 45 47 44 39 27 31 28 29 26 25 25 24 24 26 26 26 25
59 53 57 50 50 46 55 47 56 57 51 53 44 53 41 25 30 35 40 39 34 36 38 40 42 44 47 48 46 46 38 28 31 30 30 28 26 27 26 27 28 28 28 28
46 52 54 53 46 44 38 48 69 50 60 52 60 66 40 29 37 42 42 39 38 40 40 40 44 46 48 47 47 44 34 29 32 31 32 30 28 29 28 28 30 30 29 28
61 52 57 61 50 42 47 36 62 32 50 50 48 58 52 32 38 40 42 39 40 39 41 44 48 48 48 50 48 41 31 30 34 34 35 33 30 30 30 31 32 32 31 30
44 59 60 60 55 43 36 47 40 58 50 46 52 35 24 34 34 42 49 46 41 42 43 47 50 50 50 48 46 43 37 34 36 36 38 37 34 33 33 34 35 35 34 32
45 60 59 60 53 47 35 38 41 60 24 25 40 34 51 37 38 47 55 53 52 51 51 50 49 48 48 45 41 38 37 37 41 40 41 42 39 37 38 38 38 37 36 34
38 43 58 57 57 54 50 46 49 41 35 25 23 45 48 55 44 49 59 58 55 52 49 47 46 45 44 43 40 40 40 43 47 48 47 46 45 42 41 41 41 40 39 38
34 51 76 44 50 49 45 40 43 47 31 46 36 44 32 47 49 55 59 52 49 47 44 41 40 40 43 45 45 43 45 50 55 55 55 53 51 50 50 48 46 44 44 45
31 32 52 32 35 40 54 55 41 48 52 50 38 29 52 52 55 54 53 53 52 50 48 47 44 41 40 40 42 46 48 54 58 59 59 56 55 55 55 53 48 46 46 48
36 38 25 35 24 40 48 52 52 42 67 41 41 25 30 55 58 57 60 59 58 57 55 53 50 52 53 51 48 48 53 60 63 65 62 61 59 59 59 56 53 54 56 58
32 23 38 36 34 42 35 31 61 56 46 38 30 34 25 46 61 55 59 62 63 59 56 54 52 52 53 56 59 60 60 61 62 63 63 62 62 62 62 64 65 70 74 84
50 26 49 32 59 42 40 40 45 59 53 49 43 44 29 40 48 58 61 60 60 55 49 45 42 37 33 29 26 26 37 52 61 65 66 67 67 67 64 66 83 84 82 83
44 56 61 53 70 69 63 69 52 42 49 43 46 32 54 62 62 63 62 60 60 58 56 52 48 38 33 30 25 19 15 13 12 12 12 12 13 12 12 13 14 18 26 37
55 60 68 75 62 64 40 52 55 48 44 45 44 46 53 58 64 60 60 58 62 63 61 59 45 45 40 22 12 10 11 11 12 13 14 16 19 21 23 23 21 18 16 19
56 66 69 68 81 61 41 56 58 56 54 54 47 71 74 70 64 67 61 61 63 64 60 53 46 39 19 12 13 13 14 14 16 18 21 25 24 23 26 26 24 24 26 23
70 67 64 85 80 74 48 45 39 45 63 65 65 77 75 64 78 77 61 64 67 65 58 50 39 21 13 15 16 16 18 20 23 25 31 33 30 26 26 25 26 26 25 24
77 75 76 83 91 77 59 51 47 61 58 67 65 65 68 74 67 67 66 72 72 66 63 54 34 18 16 18 21 24 26 28 30 31 32 34 36 36 40 35 24 26 26 28
83 89 87 85 88 86 58 49 56 61 69 66 68 67 66 70 76 73 75 76 83 79 52 40 26 24 24 27 31 31 29 29 34 35 34 36 43 46 45 31 24 27 33 38
77 70 76 72 71 65 64 61 65 67 70 71 72 76 78 78 76 77 77 89 64 43 24 24 26 24 22 24 29 29 24 32 38 39 36 38 48 49 39 27 30 32 34 37
66 65 73 70 69 70 64 62 65 64 66 68 76 83 82 82 96 85 65 48 29 25 24 25 24 24 24 26 26 23 20 21 23 29 40 44 38 29 28 33 38 40 39 44
66 71 76 76 67 73 66 63 63 69 78 78 81 83 87 74 76 57 39 28 28 25 21 22 25 28 27 25 20 19 22 25 27 29 32 34 37 40 46 49 54 60 59 67
74 72 77 79 56 58 60 63 69 73 82 85 85 80 69 66 53 39 37 34 25 22 24 26 26 24 21 22 21 21 26 38 50 56 56 58 62 64 68 69 68 70 71 77
Wind_Speed
1 5 3 5 5 5 6 5 4 1 1 3 5 6 11 11 9 13 15 13 14 13 13 13 12 12 14 16 14 10 9 8 7 5 4 4 4 5 7 8 9 10 12 13
5 3 2 4 4 6 4 4 2 1 1 2 3 10 11 5 9 17 19 16 16 16 16 15 14 14 15 14 13 10 9 7 6 5 5 4 5 6 6 7 8 9 10 11
5 3 1 3 2 5 3 4 3 2 1 2 5 8 4 0 4 6 9 14 17 17 18 17 15 14 14 13 10 10 8 8 7 6 5 4 5 6 6 7 7 8 9 11
5 3 2 4 4 2 3 1 2 5 3 3 3 5 5 3 5 3 4 9 14 19 19 17 15 15 13 11 11 10 9 8 6 6 5 5 5 6 6 6 6 7 9 10
2 3 4 5 2 1 3 2 4 3 4 3 3 3 7 4 4 5 5 5 13 17 18 16 14 12 11 11 11 10 9 8 8 7 6 6 6 6 6 6 6 6 7 9
2 2 3 2 3 3 6 5 7 4 3 2 2 4 6 2 2 4 2 5 12 16 16 13 11 12 12 12 12 11 10 10 9 8 8 7 7 7 7 6 6 6 7 8
5 3 3 3 5 3 4 6 3 3 4 5 2 2 9 4 3 2 4 8 12 15 14 12 12 12 12 11 11 11 12 11 11 10 9 9 9 9 8 8 7 7 7 7
4 3 3 5 2 4 2 4 5 5 3 4 2 5 5 3 3 2 3 8 12 13 12 10 9 9 10 11 11 11 12 12 12 12 11 11 11 11 11 10 9 9 8 8
4 2 3 3 2 2 3 1 4 7 2 3 2 7 6 4 4 2 3 8 11 12 10 8 8 8 9 10 11 11 12 13 14 13 13 13 13 13 13 12 11 11 10 10
5 4 1 2 1 4 1 5 4 3 3 4 5 5 6 2 5 1 1 7 8 8 7 6 7 9 10 11 11 12 13 13 14 14 14 14 14 14 14 14 13 13 13 12
3 3 2 1 4 6 2 0 4 3 3 5 1 6 5 5 3 5 5 7 7 4 3 4 6 10 12 12 12 11 12 12 12 13 13 14 14 15 15 16 15 15 14 14
1 4 3 2 2 1 1 3 4 4 5 1 2 6 1 2 1 8 8 8 8 6 4 2 3 5 6 12 13 13 12 11 12 12 12 12 13 13 14 15 16 16 16 17
4 0 3 5 3 3 3 4 4 4 3 6 5 5 2 3 5 7 13 11 11 9 7 5 2 4 6 7 9 13 14 14 13 13 13 12 12 12 13 15 16 16 17 18
2 2 5 6 3 4 4 4 5 4 3 4 6 4 5 5 7 10 13 13 11 9 7 6 6 8 10 11 10 8 6 10 11 12 12 13 13 13 14 15 16 17 18 20
2 2 1 3 3 2 4 4 8 9 6 7 4 9 4 9 10 18 15 13 11 8 7 6 7 8 9 9 10 11 10 7 5 7 9 11 12 14 16 17 19 20 22 25
4 1 2 2 2 4 5 7 8 8 3 8 2 13 7 2 13 16 17 15 12 9 7 6 6 6 6 8 8 8 8 8 8 9 10 12 14 16 18 21 25 26 26 25
3 4 2 3 3 5 6 8 10 5 5 7 8 6 5 3 10 19 19 15 12 9 6 4 4 6 8 9 10 10 11 12 13 14 15 17 19 21 23 24 25 25 25 25
6 5 2 3 3 1 4 3 4 9 5 8 1 1 2 1 5 10 12 12 10 7 3 2 4 8 9 9 9 10 11 13 16 18 20 22 25 27 28 30 30 31 31 31
0 4 2 2 3 6 2 2 3 4 3 0 3 4 5 12 11 5 9 9 7 5 2 2 4 7 8 8 11 13 15 18 21 23 25 27 27 29 31 32 33 33 33 34
3 4 3 2 3 6 2 2 0 1 4 2 3 7 11 9 2 3 12 10 6 2 2 4 7 8 9 12 15 18 20 24 26 28 30 31 30 31 34 35 35 34 34 34
3 1 4 3 3 7 4 4 1 2 3 1 4 11 17 4 3 1 12 8 3 2 4 8 10 10 12 16 20 23 25 30 30 32 35 37 35 36 37 40 38 37 36 35
6 6 4 3 2 7 2 1 1 3 1 3 5 9 15 6 3 7 8 5 4 7 6 9 11 13 16 19 23 27 31 33 33 33 35 36 37 38 40 41 39 35 32 31
3 5 4 7 5 2 2 2 1 2 2 3 7 7 7 8 7 8 10 9 5 7 6 9 14 20 24 26 28 32 34 34 35 35 37 37 38 42 43 38 35 34 34 34
3 5 3 2 2 4 4 4 4 3 4 4 6 7 7 6 6 3 3 5 5 7 12 18 23 28 33 33 34 34 35 34 34 35 36 39 42 42 39 38 37 36 38 38
3 6 5 3 4 4 7 6 4 7 6 6 7 7 5 2 3 4 4 6 9 15 20 25 30 33 37 38 39 38 36 35 36 37 39 40 40 42 41 40 39 36 36 33
8 5 4 4 4 3 4 3 5 8 9 9 7 3 4 4 4 5 7 11 16 22 27 31 33 34 36 38 41 42 41 38 37 37 39 39 40 40 39 39 40 35 34 31
Wind_Direction
131 82 167 192 170 147 126 113 146 234 4 159 239 264 271 266 240 228 225 220 215 204 202 207 208 206 205 209 219 238 246 247 261 260 245 260 290 310 322 329 337 345 347 348
38 113 176 120 100 109 112 116 166 9 70 138 351 281 259 221 235 234 230 220 215 210 209 207 205 206 206 213 221 238 235 245 255 235 241 259 293 306 312 324 334 343 346 351
131 168 179 129 107 94 46 141 169 145 71 67 336 296 266 69 245 252 243 235 227 218 208 202 199 198 201 212 229 233 239 247 242 238 246 269 289 295 303 315 329 338 349 356
91 318 130 95 92 82 139 193 138 121 94 217 14 272 304 342 291 268 264 231 216 204 200 200 201 205 210 219 232 234 239 247 239 239 247 268 280 292 298 304 321 339 349 352
296 22 67 76 95 349 144 99 94 82 96 66 6 65 271 356 298 270 236 226 198 193 194 195 200 207 220 233 233 233 240 238 235 239 253 275 283 284 287 296 311 329 340 343
68 30 52 75 48 33 154 79 48 57 78 26 331 120 284 273 267 316 259 207 186 186 186 192 203 219 230 229 229 238 240 240 240 242 252 265 273 275 276 282 300 315 322 329
17 355 352 45 74 23 69 65 15 9 8 216 272 46 247 264 257 285 303 204 181 180 187 198 214 221 222 228 238 243 242 241 244 248 260 270 273 275 277 277 280 288 298 312
139 330 12 355 56 177 73 137 147 192 186 264 352 241 253 244 264 307 324 189 179 184 191 201 213 221 226 235 244 253 253 252 253 253 260 270 275 276 275 272 275 280 287 300
136 20 330 38 2 71 178 125 143 106 19 44 237 285 296 257 265 10 62 167 178 183 190 204 220 233 242 253 264 269 262 258 258 259 265 274 281 281 278 276 278 281 286 295
189 96 5 321 67 43 190 154 75 0 169 248 288 277 238 233 233 160 173 181 167 175 196 221 241 251 256 263 267 266 264 264 263 266 274 284 289 288 285 282 282 283 284 288
144 101 265 8 206 183 132 149 51 115 130 174 250 262 211 215 233 185 150 149 157 166 206 256 269 267 264 260 258 264 266 267 270 273 279 286 290 289 286 284 283 283 284 286
185 124 143 211 295 297 260 212 157 129 214 99 139 275 198 287 330 161 130 120 124 127 114 75 11 338 305 263 255 256 256 262 268 269 275 284 288 290 290 290 290 289 289 291
179 100 58 356 359 353 221 198 130 108 91 201 149 259 73 74 96 140 147 149 142 132 120 107 49 355 340 320 296 264 253 250 257 260 266 274 281 287 292 292 291 291 292 293
126 130 173 188 186 131 195 199 188 146 136 182 223 265 218 208 189 178 168 156 145 133 113 87 65 50 40 30 21 1 303 264 262 263 272 278 281 285 288 289 290 291 293 296
73 228 90 276 253 219 220 187 182 199 191 183 236 207 236 215 202 191 175 160 149 134 118 97 78 63 50 38 31 27 22 6 331 298 289 288 288 292 296 297 298 301 302 299
3 277 89 302 24 233 265 245 222 233 249 276 338 277 216 275 190 177 180 175 167 154 137 113 84 61 38 23 11 3 356 351 346 334 325 316 310 307 306 303 298 298 298 296
135 138 108 262 315 297 286 226 203 188 201 185 221 243 175 187 187 188 181 179 174 164 145 105 43 21 11 0 353 347 348 345 338 335 331 326 323 319 316 312 308 304 300 295
147 135 146 235 341 280 243 154 168 205 225 215 275 130 177 251 162 178 181 182 172 161 131 31 7 353 345 344 340 338 335 333 330 326 323 320 318 315 313 311 308 304 300 296
134 127 154 197 214 296 331 75 129 163 315 134 210 97 100 126 126 130 175 178 175 180 212 295 323 329 327 322 323 322 322 323 320 319 318 318 319 316 314 311 308 306 304 302
70 63 126 128 192 232 265 284 158 176 314 2 129 144 149 143 123 251 197 192 194 217 298 317 317 308 304 309 312 311 314 315 315 316 316 316 317 319 319 314 309 306 303 300
122 99 201 188 240 285 245 279 327 122 255 267 185 171 169 163 192 305 185 185 202 290 325 310 295 299 307 309 308 308 310 306 313 312 310 308 309 313 314 315 308 304 303 302
172 154 194 128 183 271 344 47 164 214 207 195 183 186 193 211 145 146 164 173 255 308 293 287 299 305 307 309 308 306 303 307 305 301 295 295 297 303 308 309 305 303 303 301
229 190 182 185 216 225 187 138 294 252 266 226 199 189 191 187 176 180 193 263 234 250 279 304 312 310 310 311 310 307 306 306 305 302 298 293 294 299 304 303 303 303 302 301
232 169 199 138 209 221 217 254 282 276 275 252 217 206 187 185 263 241 228 240 263 295 311 316 314 311 310 311 311 310 309 309 306 302 298 296 298 300 300 300 300 300 299 301
213 157 177 251 251 233 248 219 231 241 238 214 210 213 256 276 257 248 257 284 302 310 312 311 310 310 309 310 308 308 309 310 305 301 299 298 298 299 300 300 300 302 300 301
192 188 176 226 210 234 260 283 284 237 220 211 216 210 206 244 255 272 293 305 309 309 310 310 310 310 309 310 309 309 311 310 307 304 302 302 302 302 301 301 302 301 301 302